�������l�o���
Date,Time,MP-1(��Sv/h),MP-2(��Sv/h),MP-3(��Sv/h),MP-4(��Sv/h),MP-5(��Sv/h),MP-6(��Sv/h),MP-7(��Sv/h),����,����(m/s),���J
2019/03/11,00:00,0.210,0.188,0.303,0.286,0.275,0.152,0.092,�k�k��,7.4,�L
2019/03/11,00:10,0.210,0.189,0.305,0.284,0.277,0.153,0.093,�k�k��,8.7,�L
2019/03/11,00:20,0.211,0.189,0.303,0.285,0.275,0.154,0.094,�k�k��,7.0,�L
2019/03/11,00:30,0.212,0.189,0.305,0.286,0.275,0.154,0.095,�k�k��,8.8,�L
2019/03/11,00:40,0.211,0.189,0.304,0.286,0.276,0.154,0.095,�k�k��,9.2,�L
2019/03/11,00:50,0.213,0.190,0.305,0.285,0.276,0.155,0.095,�k�k��,9.0,�L
2019/03/11,01:00,0.212,0.191,0.305,0.287,0.274,0.156,0.095,�k�k��,8.6,�L
2019/03/11,01:10,0.214,0.190,0.305,0.285,0.275,0.155,0.097,�k�k��,8.7,�L
2019/03/11,01:20,0.213,0.191,0.306,0.287,0.275,0.156,0.096,�k�k��,8.8,�L
2019/03/11,01:30,0.213,0.191,0.305,0.286,0.275,0.156,0.096,�k�k��,10.0,�L
2019/03/11,01:40,0.214,0.190,0.305,0.286,0.275,0.156,0.097,�k�k��,8.7,�L
2019/03/11,01:50,0.213,0.191,0.303,0.286,0.276,0.157,0.097,�k�k��,9.3,�L
2019/03/11,02:00,0.213,0.192,0.305,0.284,0.274,0.157,0.097,�k�k��,8.5,�L
2019/03/11,02:10,0.212,0.191,0.303,0.287,0.274,0.155,0.097,�k�k��,8.1,�L
2019/03/11,02:20,0.212,0.191,0.303,0.283,0.275,0.155,0.096,�k�k��,8.5,�L
2019/03/11,02:30,0.211,0.190,0.302,0.281,0.273,0.155,0.097,�k��,8.7,�L
2019/03/11,02:40,0.210,0.190,0.302,0.282,0.273,0.154,0.096,�k�k��,8.2,�L
2019/03/11,02:50,0.209,0.189,0.299,0.279,0.273,0.154,0.096,�k�k��,7.3,�L
2019/03/11,03:00,0.210,0.188,0.299,0.280,0.272,0.153,0.096,�k�k��,7.5,�L
2019/03/11,03:10,0.208,0.189,0.298,0.278,0.271,0.153,0.095,�k��,7.9,�L
2019/03/11,03:20,0.208,0.187,0.297,0.277,0.270,0.152,0.095,�k�k��,8.4,�L
2019/03/11,03:30,0.208,0.187,0.296,0.277,0.271,0.152,0.095,�k�k��,8.8,�L
2019/03/11,03:40,0.208,0.186,0.297,0.276,0.270,0.151,0.095,�k�k��,7.6,�L
2019/03/11,03:50,0.206,0.185,0.295,0.275,0.270,0.151,0.094,�k�k��,7.8,�L
2019/03/11,04:00,0.206,0.187,0.294,0.275,0.270,0.150,0.094,�k�k��,8.1,�L
2019/03/11,04:10,0.205,0.187,0.294,0.273,0.270,0.151,0.094,�k�k��,7.6,�L
2019/03/11,04:20,0.206,0.185,0.294,0.273,0.268,0.150,0.094,�k�k��,7.5,�L
2019/03/11,04:30,0.205,0.186,0.294,0.274,0.270,0.150,0.093,�k�k��,7.1,�L
2019/03/11,04:40,0.203,0.186,0.294,0.272,0.268,0.148,0.093,�k�k��,6.9,�L
2019/03/11,04:50,0.204,0.184,0.292,0.272,0.268,0.148,0.093,�k�k��,7.3,�L
2019/03/11,05:00,0.204,0.184,0.291,0.273,0.269,0.149,0.093,�k�k��,5.5,�L
2019/03/11,05:10,0.204,0.185,0.292,0.273,0.269,0.148,0.093,�k�k��,6.4,�L
2019/03/11,05:20,0.204,0.184,0.291,0.272,0.268,0.149,0.093,�k�k��,6.7,�L
2019/03/11,05:30,0.203,0.184,0.290,0.272,0.268,0.148,0.092,�k�k��,6.3,�L
2019/03/11,05:40,0.202,0.184,0.292,0.271,0.267,0.148,0.093,�k�k��,6.4,�L
2019/03/11,05:50,0.202,0.184,0.290,0.271,0.267,0.148,0.092,�k�k��,6.7,�L
2019/03/11,06:00,0.203,0.183,0.292,0.271,0.266,0.147,0.093,�k�k��,6.6,�L
2019/03/11,06:10,0.203,0.183,0.290,0.271,0.268,0.147,0.093,�k�k��,8.1,�L
2019/03/11,06:20,0.202,0.183,0.288,0.270,0.268,0.147,0.093,�k,6.5,�L
2019/03/11,06:30,0.203,0.183,0.289,0.270,0.267,0.147,0.093,�k�k��,6.5,�L
2019/03/11,06:40,0.202,0.185,0.291,0.270,0.267,0.147,0.094,�k�k��,7.8,�L
2019/03/11,06:50,0.202,0.184,0.291,0.271,0.268,0.147,0.093,�k�k��,7.9,�L
2019/03/11,07:00,0.203,0.183,0.290,0.270,0.268,0.147,0.093,�k�k��,8.4,�L
2019/03/11,07:10,0.203,0.184,0.289,0.271,0.267,0.148,0.094,�k�k��,7.5,�L
2019/03/11,07:20,0.202,0.182,0.288,0.269,0.269,0.147,0.094,�k�k��,8.4,�L
2019/03/11,07:30,0.201,0.183,0.289,0.267,0.267,0.147,0.094,�k�k��,8.7,�L
2019/03/11,07:40,0.201,0.182,0.288,0.267,0.267,0.146,0.092,�k�k��,8.5,�L
2019/03/11,07:50,0.200,0.182,0.288,0.268,0.266,0.147,0.094,�k�k��,8.4,�L
2019/03/11,08:00,0.199,0.182,0.286,0.265,0.266,0.147,0.093,�k�k��,9.8,�L
2019/03/11,08:10,0.198,0.182,0.288,0.266,0.266,0.147,0.092,�k,10.3,�L
2019/03/11,08:20,0.198,0.181,0.287,0.266,0.266,0.146,0.093,�k,10.0,�L
2019/03/11,08:30,0.200,0.182,0.287,0.269,0.267,0.146,0.094,�k�k��,9.8,�L
2019/03/11,08:40,0.198,0.182,0.289,0.267,0.267,0.146,0.094,�k�k��,11.4,�L
2019/03/11,08:50,0.199,0.182,0.288,0.269,0.267,0.147,0.094,�k�k��,11.5,�L
2019/03/11,09:00,0.199,0.181,0.288,0.269,0.268,0.147,0.093,�k�k��,11.2,�L
2019/03/11,09:10,0.198,0.183,0.288,0.268,0.266,0.146,0.093,�k�k��,12.0,�L
2019/03/11,09:20,0.198,0.182,0.289,0.267,0.266,0.146,0.093,�k�k��,12.3,�L
2019/03/11,09:30,0.199,0.181,0.290,0.268,0.268,0.146,0.092,�k�k��,11.7,�L
2019/03/11,09:40,0.199,0.181,0.287,0.267,0.268,0.146,0.092,�k�k��,11.7,�L
2019/03/11,09:50,0.198,0.182,0.288,0.267,0.267,0.145,0.093,�k�k��,11.7,�L
2019/03/11,10:00,0.199,0.180,0.287,0.267,0.267,0.146,0.093,�k�k��,11.7,�L
2019/03/11,10:10,0.198,0.181,0.287,0.267,0.266,0.146,0.093,�k�k��,11.5,�L
2019/03/11,10:20,0.199,0.182,0.287,0.266,0.265,0.145,0.093,�k�k��,10.7,�L
2019/03/11,10:30,0.197,0.181,0.288,0.267,0.266,0.146,0.093,�k�k��,12.3,�L
2019/03/11,10:40,0.198,0.180,0.287,0.267,0.268,0.145,0.093,�k��,9.0,�L
2019/03/11,10:50,0.197,0.181,0.286,0.267,0.266,0.144,0.093,-,CALM,�L
2019/03/11,11:00,0.196,0.181,0.286,0.266,0.266,0.146,0.092,-,-,�L
2019/03/11,11:10,0.197,0.182,0.287,0.267,0.267,0.145,0.093,-,-,�L
2019/03/11,11:20,0.197,0.181,0.287,0.266,0.265,0.146,0.093,-,-,�L
2019/03/11,11:30,0.197,0.180,0.286,0.266,0.265,0.146,0.093,-,-,�L
2019/03/11,11:40,0.196,0.183,0.288,0.266,0.265,0.146,0.094,-,-,�L
2019/03/11,11:50,0.195,0.181,0.286,0.267,0.267,0.147,0.093,-,-,�L
2019/03/11,12:00,0.197,0.181,0.288,0.267,0.267,0.147,0.093,-,-,�L
2019/03/11,12:10,0.197,0.182,0.289,0.268,0.268,0.148,0.093,-,-,�L
2019/03/11,12:20,0.196,0.182,0.290,0.268,0.270,0.147,0.094,-,-,�L
2019/03/11,12:30,0.199,0.183,0.289,0.267,0.268,0.148,0.094,-,-,�L
2019/03/11,12:40,0.199,0.181,0.288,0.267,0.268,0.146,0.093,-,-,�L
2019/03/11,12:50,0.198,0.182,0.290,0.269,0.269,0.147,0.094,-,-,�L
2019/03/11,13:00,0.198,0.182,0.289,0.269,0.269,0.146,0.093,-,-,�L
2019/03/11,13:10,0.200,0.181,0.289,0.270,0.268,0.146,0.092,-,-,�L
2019/03/11,13:20,0.199,0.180,0.290,0.272,0.269,0.145,0.093,-,-,��
2019/03/11,13:30,0.200,0.182,0.290,0.270,0.267,0.146,0.092,-,-,��
2019/03/11,13:40,0.200,0.180,0.288,0.272,0.268,0.145,0.092,-,-,��
2019/03/11,13:50,0.198,0.180,0.292,0.270,0.270,0.146,0.091,-,-,��
2019/03/11,14:00,0.200,0.181,0.290,0.272,0.268,0.144,0.092,-,-,��
2019/03/11,14:10,0.201,0.180,0.291,0.271,0.269,0.145,0.091,-,-,��
2019/03/11,14:20,0.200,0.178,0.290,0.270,0.268,0.145,0.091,-,-,��
2019/03/11,14:30,0.200,0.179,0.290,0.273,0.268,0.145,0.091,-,-,��
2019/03/11,14:40,0.201,0.179,0.290,0.272,0.269,0.144,0.090,-,-,��
2019/03/11,14:50,0.201,0.180,0.291,0.272,0.268,0.145,0.090,-,-,��
2019/03/11,15:00,0.201,0.179,0.291,0.274,0.268,0.147,0.090,-,-,��
2019/03/11,15:10,0.200,0.179,0.292,0.273,0.269,0.144,0.089,-,-,��
2019/03/11,15:20,0.201,0.180,0.292,0.273,0.267,0.145,0.090,-,-,��
2019/03/11,15:30,0.201,0.179,0.292,0.273,0.268,0.144,0.090,-,-,��
2019/03/11,15:40,0.200,0.180,0.293,0.271,0.268,0.145,0.091,-,-,��
2019/03/11,15:50,0.201,0.181,0.293,0.274,0.270,0.144,0.089,-,-,��
2019/03/11,16:00,0.202,0.180,0.291,0.272,0.269,0.145,0.089,-,-,��
2019/03/11,16:10,0.201,0.180,0.292,0.273,0.268,0.145,0.089,-,-,��
2019/03/11,16:20,0.200,0.179,0.291,0.274,0.269,0.145,0.089,-,-,��
2019/03/11,16:30,0.201,0.180,0.291,0.273,0.268,0.145,0.090,-,-,��
2019/03/11,16:40,0.202,0.180,0.294,0.271,0.269,0.146,0.090,-,-,��
2019/03/11,16:50,0.201,0.180,0.291,0.273,0.267,0.147,0.090,-,-,��
2019/03/11,17:00,0.201,0.180,0.293,0.272,0.268,0.145,0.089,-,-,��
2019/03/11,17:10,0.201,0.179,0.293,0.273,0.270,0.145,0.090,-,-,��
2019/03/11,17:20,0.202,0.179,0.291,0.273,0.269,0.146,0.089,-,-,��
2019/03/11,17:30,0.201,0.180,0.293,0.273,0.269,0.146,0.090,-,-,��
2019/03/11,17:40,0.202,0.179,0.292,0.273,0.270,0.145,0.090,��,12.0,��
2019/03/11,17:50,0.201,0.179,0.293,0.274,0.268,0.146,0.090,���k��,11.1,��
2019/03/11,18:00,0.202,0.180,0.293,0.274,0.270,0.146,0.090,���k��,10.7,��
2019/03/11,18:10,0.202,0.179,0.295,0.274,0.268,0.146,0.090,��,10.1,��
2019/03/11,18:20,0.202,0.180,0.292,0.275,0.269,0.146,0.091,��,13.6,��
2019/03/11,18:30,0.202,0.179,0.293,0.274,0.269,0.147,0.090,��,14.0,��
2019/03/11,18:40,0.202,0.181,0.294,0.274,0.268,0.146,0.090,��,8.5,��
2019/03/11,18:50,0.201,0.179,0.293,0.276,0.269,0.147,0.090,��,2.2,��
2019/03/11,19:00,0.202,0.179,0.295,0.275,0.272,0.146,0.090,��,8.2,��
2019/03/11,19:10,0.204,0.179,0.294,0.274,0.269,0.146,0.090,��,8.2,��
2019/03/11,19:20,0.202,0.180,0.294,0.275,0.269,0.147,0.089,���k��,6.6,��
2019/03/11,19:30,0.202,0.180,0.296,0.274,0.273,0.147,0.090,��,6.8,��
2019/03/11,19:40,0.202,0.180,0.294,0.275,0.270,0.148,0.090,��,7.5,��
2019/03/11,19:50,0.202,0.180,0.294,0.276,0.271,0.147,0.089,��,8.7,��
2019/03/11,20:00,0.203,0.179,0.295,0.274,0.270,0.147,0.090,��,7.7,��
2019/03/11,20:10,0.203,0.179,0.294,0.276,0.269,0.146,0.091,��,5.4,��
2019/03/11,20:20,0.203,0.180,0.293,0.275,0.270,0.147,0.089,��,4.1,��
2019/03/11,20:30,0.203,0.181,0.295,0.274,0.271,0.147,0.090,��,6.2,��
2019/03/11,20:40,0.204,0.180,0.294,0.276,0.268,0.146,0.089,���k��,5.3,��
2019/03/11,20:50,0.202,0.179,0.294,0.275,0.270,0.146,0.090,���k��,5.1,��
2019/03/11,21:00,0.202,0.180,0.294,0.274,0.269,0.146,0.090,���쐼,2.9,��
2019/03/11,21:10,0.204,0.180,0.295,0.275,0.269,0.147,0.090,��,1.6,��
2019/03/11,21:20,0.202,0.180,0.294,0.275,0.269,0.146,0.090,���k��,4.8,��
2019/03/11,21:30,0.203,0.181,0.295,0.275,0.268,0.146,0.090,���k��,11.4,��
2019/03/11,21:40,0.204,0.179,0.294,0.275,0.269,0.147,0.090,�k��,11.5,��
2019/03/11,21:50,0.202,0.180,0.293,0.277,0.268,0.146,0.090,���k��,9.0,��
2019/03/11,22:00,0.203,0.180,0.294,0.275,0.269,0.148,0.090,���k��,8.1,��
2019/03/11,22:10,0.204,0.181,0.295,0.276,0.271,0.148,0.090,���k��,11.0,��
2019/03/11,22:20,0.203,0.179,0.295,0.274,0.269,0.146,0.090,�k��,14.0,��
2019/03/11,22:30,0.203,0.179,0.295,0.276,0.269,0.147,0.090,���k��,11.5,��
2019/03/11,22:40,0.205,0.180,0.296,0.275,0.270,0.147,0.090,�k��,8.8,��
2019/03/11,22:50,0.203,0.178,0.296,0.276,0.269,0.147,0.089,�k��,7.7,��
2019/03/11,23:00,0.203,0.181,0.295,0.275,0.271,0.147,0.090,�k��,7.9,��
2019/03/11,23:10,0.204,0.180,0.296,0.275,0.271,0.147,0.090,�k�k��,6.7,��
2019/03/11,23:20,0.204,0.181,0.296,0.276,0.271,0.148,0.090,�k,1.9,��
2019/03/11,23:30,0.203,0.180,0.295,0.276,0.271,0.147,0.090,�k��,1.6,��
2019/03/11,23:40,0.204,0.181,0.293,0.275,0.270,0.148,0.090,���k��,3.4,��
2019/03/11,23:50,0.204,0.180,0.296,0.276,0.269,0.147,0.090,�k��,4.8,��
